AirNav   Air Wisconsin pilot careers
 
 706 users online  

74KY Terry Field Airport
Cunningham, Kentucky, USA

GOING TO CUNNINGHAM?


FAA INFORMATION EFFECTIVE 06 DECEMBER 2018

Location

FAA Identifier: 74KY
Lat/Long: 36-53-55.2000N / 088-50-48.2060W
36-53.920000N / 088-50.803433W
36.8986667 / -88.8467239
(estimated)
Elevation: 370 ft. / 113 m (estimated)
Variation: 01E (1985)
From city: 3 miles SE of CUNNINGHAM, KY
Time zone: UTC -6 (UTC -5 during Daylight Saving Time)
Zip code: 42035

Airport Operations

Airport use: Private use. Permission required prior to landing
Activation date: 07/1986
Control tower: no
ARTCC: MEMPHIS CENTER
FSS: LOUISVILLE FLIGHT SERVICE STATION
Attendance: UNATNDD
Wind indicator: yes
Segmented circle: no

Airport Communications

WX ASOS at PAH (10 nm N): 118.375 (270-744-6719)
WX AWOS-3 at M25 (15 nm SE): 120.625 (270-247-2094)
WX AWOS-3 at M30 (18 nm N): 124.175 (618-524-7483)

Nearby radio navigation aids

VOR radial/distance  VOR name  Freq  Var
CNGr181/6.6CUNNINGHAM VOR/DME113.1003E
CGIr122/40.0CAPE GIRARDEAU VOR/DME112.9002W

 
NDB name  Hdg/Dist  Freq  Var  ID
CAIRO118/20.539700ECIR -.-. .. .-.
CHARLESTON085/24.720802WCHQ -.-. .... --.-

Airport Services

Runway Information

Runway 18/36

Dimensions: 2500 x 40 ft. / 762 x 12 m
Surface: turf
RUNWAY 18  RUNWAY 36
Traffic pattern: leftleft
Obstructions: nonetrees, 2000 ft. from runway

Airport Ownership and Management from official FAA records

Ownership: Privately-owned
Owner: STEVEN TERRY
644 ST ROUTE 849
CUNNINGHAM, KY 42035
Phone 270-642-2149
Manager: STEVEN TERRY
RT 1
CUNNINGHAM, KY 42035
Phone 270-559-1958

Instrument Procedures

There are no published instrument procedures at 74KY.

Some nearby airports with instrument procedures:

KPAH - Barkley Regional Airport (10 nm N)
M25 - Mayfield Graves County Airport (15 nm SE)
KCIR - Cairo Regional Airport (20 nm NW)
KCHQ - Mississippi County Airport (25 nm W)
KCEY - Kyle-Oakley Field Airport (27 nm SE)
 
Loc | Ops | Rwys | IFR | FBO | Links
Com | Nav | Svcs | Stats | Notes


 
Area around 74KY (Terry Field Airport)
 
Road maps at: MapQuest Bing Google
 
Aerial photo
No photo
 
Sectional chart

 
Airport distance calculator
Flying to Terry Field Airport? Find the distance to fly.

From to 74KY

Sunrise and sunset
Times for 12-Dec-2018
 Local
(UTC-6)
 Zulu
(UTC)
Morning civil twilight06:3112:31
Sunrise07:0013:00
Sunset16:3822:38
Evening civil twilight17:0723:07

Current date and time
Zulu (UTC)  13-Dec-2018 04:14:31
Local (UTC-6)  12-Dec-2018 22:14:31
 
METAR
KPAH 
11nm N 
130353Z 20005KT 10SM OVC023 09/02 A3002 RMK AO2 SLP165 T00940022
KM25 
15nm SE 
130355Z AUTO 18006KT 10SM OVC025 08/03 A3004 RMK AO2
KM30 
18nm N 
130355Z AUTO 19007KT 10SM OVC025 09/03 A3003 RMK AO2 T00880029
KCIR 
20nm NW 
130355Z AUTO 17006KT 10SM BKN023 OVC036 08/04 A3002 RMK AO2 T00760037
TAF
KPAH 
11nm N 
122235Z 1223/1318 22010G20KT P6SM BKN028 FM131000 16006KT P6SM -RA OVC020 FM131400 14007KT 5SM -RA BR OVC010
NOTAMs
Click for the latest NOTAMs
NOTAMs are issued by the DoD/FAA and will open in a separate window not controlled by AirNav.

 

 
 

Would you like to see your business listed on this page?

 If your business provides an interesting product or service to pilots, flight crews, aircraft, or users of the Terry Field Airport, you should consider listing it here.  To start the listing process, click on the button below
 
Add a business
 

Other Pages about Terry Field Airport

Update a link
 
Copyright © AirNav, LLC. All rights reserved. Privacy Policy  Contact